#timestamp,LO_Frequency,Hit,StdDev 
1681203615.5,286046998.8,N
1681203635.3,286046997.4,N
1681203655.2,286046994.9,N
1681203675.0,286046996.3,N
1681203675.9,286046996.3,N
1681203695.7,286046995.9,N
1681203715.6,286046996.4,N
1681203735.4,286046996.4,N
1681203755.3,286046992.2,Y
1681203775.1,286046996.3,P
1681203776.0,286046996.3,P
1681203795.8,286046995.5,P
1681203815.7,286046996.3,Y
1681203835.5,286046999.3,P
1681203855.3,286046999.3,N
1681203875.2,286047001.0,N
1681203895.0,286047000.1,N
1681203895.9,286047000.1,N
1681203915.8,286047002.3,N
1681203935.6,286047002.6,N
1681203955.4,286047002.7,N
1681203975.3,286047000.6,N
1681203995.1,286047000.2,N
1681204015.8,286047002.1,N
1681204035.7,286047001.2,N
1681204055.5,286046998.9,N
1681204075.4,286046998.8,N
1681204095.2,286046997.6,N
1681204115.0,286046995.3,N
1681204115.9,286046995.3,N
1681204135.8,286046997.3,N
1681204155.6,286046997.3,N
1681204175.4,286046996.6,N
1681204195.3,286046999.4,N
1681204215.1,286046996.9,N
1681204235.9,286046999.0,N
1681204255.7,286046999.3,N
1681204275.5,286047000.4,N
1681204295.4,286047001.1,N
1681204315.2,286047000.6,N
1681204335.0,286046998.2,N
1681204335.9,286046998.2,N
1681204355.8,286046999.4,N
1681204375.6,286046996.5,N
1681204395.5,286046997.9,N
1681204415.3,286046995.5,N
1681204435.1,286046995.4,N
1681204455.9,286046999.1,N
1681204475.7,286046998.5,N
1681204495.5,286047001.0,N
1681204515.4,286046998.8,N
1681204535.2,286046999.5,N
1681204555.1,286046999.0,N
1681204556.0,286046999.0,N
1681204575.8,286046998.5,N
1681204595.6,286046998.5,N
1681204615.5,286046995.1,Y
1681204635.3,286046999.5,P
1681204655.2,286046999.1,N
1681204675.9,286046999.2,N
1681204695.7,286047000.7,N
1681204715.6,286047001.2,N
1681204735.4,286047000.7,N
1681204755.2,286047002.4,N
1681204775.1,286047001.5,N
1681204776.0,286047001.5,N
1681204795.8,286047002.8,N
1681204815.7,286047001.6,N
1681204835.5,286047002.1,N
1681204855.3,286046999.7,N
1681204875.2,286047000.1,N
1681204895.0,286047002.6,N
1681204895.9,286047002.6,N
1681204915.7,286047002.3,N
1681204935.6,286047001.5,N
1681204955.4,286047002.5,N
1681204975.3,286047002.6,N
1681204995.1,286047000.2,N
1681204996.0,286047000.2,N
1681205015.8,286046998.2,N
1681205035.7,286046996.6,N
1681205055.5,286046998.0,N
1681205075.3,286046995.6,N
1681205095.2,286046995.7,N
1681205115.0,286046995.0,N
1681205115.9,286046995.0,N
1681205135.8,286046996.2,N
1681205155.6,286046993.3,N
1681205175.4,286046993.8,N
1681205195.3,286046994.5,N
1681205215.1,286046992.2,N
1681205235.8,286046991.4,N
1681205255.7,286046988.9,Y
1681205275.5,286046992.4,P
1681205295.4,286046991.8,N
1681205315.2,286046991.8,N
1681205335.0,286046992.4,N
1681205335.9,286046992.4,N
1681205355.8,286046991.3,Y
1681205375.6,286046996.7,P
1681205395.4,286046996.7,N
1681205415.3,286046999.0,N
1681205435.1,286047000.4,N
1681205455.9,286046999.8,N
1681205475.7,286047002.7,N
1681205495.5,286047002.4,N
1681205515.4,286047000.7,N
1681205535.2,286046998.5,N
1681205555.0,286046998.9,N
1681205555.9,286046998.9,N
1681205575.8,286046999.2,N
1681205595.6,286046999.0,N
1681205615.5,286046999.1,N
1681205635.3,286047000.9,N
1681205655.1,286047000.2,N
1681205675.9,286047000.1,N
1681205695.7,286047002.6,N
1681205715.5,286046999.7,N
1681205735.4,286047000.4,N
1681205755.2,286047000.0,N
1681205775.0,286047000.0,N
1681205775.9,286047000.0,N
1681205795.8,286047002.4,N
1681205815.6,286047000.2,N
1681205835.5,286046998.8,N
1681205855.3,286047001.2,N
1681205875.1,286046998.2,N
1681205895.9,286047000.1,N
1681205915.7,286047000.0,N
1681205935.5,286047001.5,N
1681205955.4,286047001.3,N
1681205975.2,286047002.7,N
1681205995.0,286047002.5,N
1681205996.0,286047002.5,N
1681206015.8,286047000.2,N
1681206035.6,286047001.8,N
1681206055.5,286047001.8,N
1681206075.3,286047002.3,N
1681206095.1,286047000.2,N
1681206115.9,286047001.1,N
1681206135.7,286047000.5,N
1681206155.5,286047002.6,N
1681206175.4,286047004.0,Y
1681206195.2,286047004.6,P
1681206215.1,286047006.1,P
1681206216.0,286047006.1,N
1681206235.8,286047008.5,Y
1681206255.6,286047003.4,P
1681206275.5,286047004.7,P
1681206295.3,286047003.6,P
1681206315.2,286047005.9,Y
1681206335.9,286047002.4,P
1681206355.7,286047004.2,P
1681206375.6,286047001.7,N
1681206395.4,286047001.4,N
1681206415.2,286047001.8,N
1681206435.1,286047002.9,N
1681206436.0,286047002.9,N
1681206455.8,286047003.4,Y
1681206475.7,286047002.5,P
1681206495.5,286047001.8,P
1681206515.3,286047003.6,P
1681206535.2,286047005.8,Y
1681206555.0,286047003.2,P
1681206555.9,286047003.2,P
1681206575.7,286047003.5,P
1681206595.6,286047005.0,Y
1681206615.4,286047003.1,P
1681206635.3,286047003.8,P
1681206655.1,286047004.6,P
1681206675.8,286047002.9,Y
1681206695.7,286046999.7,P
1681206715.5,286047000.8,N
1681206735.4,286046998.1,N
1681206755.2,286046999.0,N
1681206775.0,286046998.6,N
1681206775.9,286046998.6,N
1681206795.8,286046999.5,N
1681206815.6,286047000.4,N
1681206835.4,286047001.5,N
1681206855.3,286047001.5,N
1681206875.1,286047001.5,N
1681206895.9,286047004.4,N
1681206915.7,286047003.6,N
1681206935.5,286047004.9,N
1681206955.4,286047007.4,Y
1681206975.2,286047007.6,P
1681206995.0,286047006.6,N
1681206995.9,286047006.6,N
1681207015.8,286047010.1,Y
1681207035.6,286047003.7,P
1681207055.5,286047004.9,P
1681207075.3,286047006.7,P
1681207095.1,286047008.5,Y
1681207145.9,286047002.9,E
1681207155.8,286047002.1,N
1681207175.7,286047000.3,P
1681207195.5,286047000.9,N
